SEBI

Registration No.

INH000000305

Ip Address Lookup

So far visitors:

customizable counter

TRIAL

TRIAL

SEND SMS FOR TRIAL

EQUITY - COMMODITY OR BOTH

TO

 09920033678

AND GET TRIAL

 

SEBI Registration No.: INH000000305 *****

* Commodity: 9500/month * Equity: 6000/month


* Gold Package: 7000 * Gold-Silver Package: 8100
*Crude-NG-Copper-Nickel Package: 6000


To See Past Performance, Click Here

For TRIAL / Registration,

click here

Past Performance >> Commodity
 
Search
 
Entry Start Date Entry End Date
Exit Start Date Exit End Date
Scrip Name Contract
Package
 

Packages: Precious Metals - Energy and Base Metals - Profit is calculated on basis of 1 lot per call

Package: Equity calls: Profit is calculated as follows:

1. If the scrip is in F & O then 1 lot is counted otherwise

2. Trade of Rs.1,50,000/- per call is counted.

 
Page: ( 1 2 3 4 5 6 7 8 9 10 11 12 13 14 15 16 17 18 19 20 21 22 23 24 25 26 27 28 29 30 31 32 33 34 35 36 37 38 39 40 41 42 43 44 45 46 47 48 49 50 51 52 53 54 55 56 57 58 59 60 61 62 63 64 65 66 67 68 69 70 71 72 73 74 75 76 77 ) [Current Page: 61]
Displaying 4501 to 4575   Calls
Entry Date Type Scrip Entry Price (Rs) T1
(Rs)
T2
(Rs)
T3
(Rs)
Stop Loss
(Rs)
Exit Date Exit Rate
(Rs)
Profit
(Rs)
 
23-09-14 Buy Above TATA MOTORS 542 550 560 --- 535 23-09-14 535 -7000.00 More
23-09-14 Buy Above Dr Reddy 3220 3245 3270 3300 3190 23-09-14 3257 4625.00 More
22-09-14 Buy Above ABNuvo 1690 1730 1745 1760 1670 22-09-14 1738 12000.00 More
18-09-14 Buy Above Dr Reddy 3105 3130 3150 3175 3070 18-09-14 3175 8750.00 More
18-09-14 Buy Above ARVIND 323 327 330 335 319 18-09-14 319 -8000.00 More
17-09-14 Sell Below RComm 106 104 102 100 109 17-09-14 100 12000.00 More
16-09-14 Buy Above BF Utilities 660 670 680 690 640 16-09-14 690 4500.00 More
16-09-14 Sell Below HDFC 1030 1020 1010 1000 1040 18-09-14 1014 4000.00 More
15-09-14 Sell Below HINDALCO 165.50 161 157 150 169 17-09-14 157 17000.00 More
15-09-14 Buy Above Andhra Bank 80 82 84 86 75 16-09-14 75 -20000.00 More
12-09-14 Sell Below ADANI ENT 500 495 490 --- 505 16-09-14 491 9000.00 More
11-09-14 Buy Above IFCI 34.50 35.50 36 --- 33.80 15-09-14 35.10 5400.00 More
11-09-14 Sell Below M&M 1375 1360 1350 1340 1390 11-09-14 1360 3750.00 More
10-09-14 Sell Below BATA 1320 1300 1280 --- 1332 12-09-14 1332 -3000.00 More
09-09-14 Buy Above TCS 2655 2675 2700 2720 2635 09-09-14 2635 -2500.00 More
09-09-14 Buy Above Apollo Tyres 214 218 222 225 209 09-09-14 218 8000.00 More
08-09-14 Sell Below DLF 172 168 165 160 176 08-09-14 176 -8000.00 More
05-09-14 Sell Below Jaiprakash 37 36 35 33 38 05-09-14 33 32000.00 More
05-09-14 Sell Below Allahabad Bank 115.50 114 112 110 117.50 08-09-14 117.50 -8000.00 More
04-09-14 Sell Below RELIANCE CAPITAL 542 536 530 --- 548 04-09-14 530 12000.00 More
04-09-14 Buy Above 347 352 356 --- 343 04-09-14 356 18000.00 More
03-09-14 Sell Below BOB 895 885 875 865 905 04-09-14 876 9500.00 More
02-09-14 Buy ICICI BANK 1605 1625 1635 1650 1590 03-09-14 1590 -3750.00 More
01-09-14 Sell Below Havells India 281 276 270 --- 286 04-09-14 272 11250.00 More
26-08-14 Buy Above VOLTAS 235 238 242 --- 232 26-08-14 242 14000.00 More
26-08-14 Buy Above LICHSGFIN 303 306 310 --- 300 26-08-14 300 -3000.00 More
25-08-14 Buy Above TITAN 366 371 377 --- 362 25-08-14 362 -4000.00 More
22-08-14 Buy Above Century Textiles 600 605 610 615 595 22-08-14 595 -5000.00 More
21-08-14 Buy Above KOTAK BANK 1005 1025 1035 1045 995 25-08-14 1045 20000.00 More
21-08-14 Buy Above 323 326 330 --- 320 21-08-14 329.50 13000.00 More
20-08-14 Sell Below RELIANCE CAPITAL 560 555 550 --- 566 21-08-14 550.50 9500.00 More
20-08-14 Buy Above Dr Reddy 2855 2880 2900 2925 2820 20-08-14 2905 6250.00 More
19-08-14 Buy Above ICICI BANK 1540 1555 1565 1575 1520 21-08-14 1564 6000.00 More
18-08-14 Buy Above RECL 288 292 296 --- 283 19-08-14 292.50 4500.00 More
18-08-14 Buy Above ACC 1500 1520 1535 1550 1475 20-08-14 1549 12250.00 More
14-08-14 Buy Above M&M 1325 1335 1345 1360 1310 19-08-14 1360 8750.00 More
14-08-14 Sell Below RELIANCE CAPITAL 545 540 535 530 551 14-08-14 540 5000.00 More
13-08-14 Sell Below HINDALCO 185 181 178 --- 188 13-08-14 178 14000.00 More
13-08-14 Sell Below BOB 900 890 880 870 910 14-08-14 870 15000.00 More
11-08-14 Sell Below PNB 910 900 890 880 925 12-08-14 925 -7500.00 More
08-08-14 Sell Below ACC 1460 1445 1425 1410 1480 08-08-14 1434 6500.00 More
07-08-14 Buy Above IDEA 159 162 165 --- 156 11-08-14 162 6000.00 More
06-08-14 Buy Above AURO PHARMA 745 755 760 770 735 06-08-14 735 -5000.00 More
04-08-14 Sell Below HDFC 1035 1025 1015 1000 1050 05-08-14 1017 4500.00 More
04-08-14 Buy Above ARVIND 228 230 232 235 226 04-08-14 234.50 13000.00 More
01-08-14 Buy Above TATA STEEL 560 565 570 --- 554 01-08-14 568 8000.00 More
01-08-14 Sell Below SBI 2430 2410 2390 2370 2455 01-08-14 2455 -3125.00 More
30-07-14 Buy Above TCS 2600 2625 2650 2670 2580 30-07-14 2580 -2500.00 More
28-07-14 Sell Below BIOCON 470 462 455 450 482 30-07-14 460 5000.00 More
25-07-14 Buy Above ITC 357.50 362 365 370 353 30-07-14 364 6500.00 More
24-07-14 Buy Above TATA STEEL 559 563 568 575 555 25-07-14 575 16000.00 More
23-07-14 Buy Above ITC 354 357 360 365 351 23-07-14 351 -3000.00 More
23-07-14 Sell Below VOLTAS 202 198 194 --- 205 24-07-14 194.50 15000.00 More
22-07-14 Buy Above Godrej Indsutries 345 350 355 --- 341 23-07-14 341 -4000.00 More
21-07-14 Buy Above HDFC 993 1005 1015 1030 982 22-07-14 1030 9250.00 More
21-07-14 Buy Above ICICI BANK 1490 1505 1525 1540 1475 22-07-14 1475 -3750.00 More
18-07-14 Buy Above TATA STEEL 560 565 570 575 552 21-07-14 573 13000.00 More
17-07-14 Buy Above ARVIND 228 231 235 --- 225 18-07-14 234 12000.00 More
17-07-14 Buy Above DLF 227 231 235 --- 223 17-07-14 223 -8000.00 More
16-07-14 Buy Above HINDALCO 178 181 184 187 175 17-07-14 187 18000.00 More
16-07-14 Sell Below 1625 1605 1590 --- 1640 16-07-14 1640 -3750.00 More
15-07-14 Buy Above PFC 290 295 300 --- 282 16-07-14 300 20000.00 More
15-07-14 Buy Above DLF 210 215 220 --- 206 16-07-14 220 20000.00 More
14-07-14 Buy Above HDFC 1000 1010 1020 1030 990 14-07-14 1015 3750.00 More
11-07-14 Buy Above RELIANCE CAPITAL 610 618 622 630 602 11-07-14 602 -8000.00 More
11-07-14 Sell Below ICICI BANK 1380 1370 1360 1340 1392 14-07-14 1342 9500.00 More
09-07-14 Sell Below ADANI ENT 443 433 423 412 455 09-07-14 426 17000.00 More
08-07-14 Sell Below BOB 868 860 845 --- 880 08-07-14 845 11500.00 More
08-07-14 Sell Below NMDC 182 178 175 --- 184 08-07-14 175 14000.00 More
07-07-14 Buy Above RECL 381 386 390 395 375 08-07-14 375 -6000.00 More
04-07-14 Sell Below TATA STEEL 530 525 520 515 535 04-07-14 525 5000.00 More
03-07-14 Buy Above Adani Power 66.50 68 70 72 64 03-07-14 67.65 9200.00 More
02-07-14 Buy Above HINDALCO 178 181 185 --- 174 03-07-14 181 6000.00 More
02-07-14 Buy Above MARUTI 2605 2630 2650 2670 2575 02-07-14 2670 8125.00 More
01-07-14 Buy Above 1715 1735 1750 1780 1705 02-07-14 1774 14750.00 More
Page wise profit 444725.00 Rs
Profit 18606327.75 Rs
TRIAL

TRIAL

SEND SMS FOR TRIAL

EQUITY - COMMODITY OR BOTH

TO

 09920033678

AND GET TRIAL